Regional Weather Roundup
Issued by NWS

Home | Current Version | Previous Version | Graphics & Text | Print | Product List | Glossary On
Versions: 1 2 3 4 5 6 7 8 9 10 11 12 13 14 15 16 17 18 19 20 21 22 23 24 25 26 27 28 29 30 31 32 33 34 35 36 37 38 39 40 41 42 43 44 45 46 47 48 49 50
000
ASUS43 KMPX 110410
RWRMN
WEATHER ROUNDUP FOR MINNESOTA
NATIONAL WEATHER SERVICE TWIN CITIES/CHANHASSEN MN
1000 PM CST SAT DEC 10 2016


NOTE: "FAIR" INDICATES FEW OR NO CLOUDS BELOW 12,000 FEET WITH NO
SIGNIFICANT WEATHER AND/OR OBSTRUCTIONS TO VISIBILITY. N/A MEANS
CURRENT SKY AND/OR WEATHER CONDITIONS ARE NOT AVAILABLE.

MNZ060>063-068>070-110500-
   Twin Cities Metro

CITY           SKY/WX    TMP DP  RH WIND       PRES   REMARKS
TWIN CITIES    LGT SNOW  13   9  84 E9        30.19F VSB 1   WCI   1
ST PAUL        LGT SNOW  13  10  88 E6        30.22F FOG     WCI   4
CRYSTAL        LGT SNOW  13   7  77 E5        30.19S WCI   5
BLAINE         LGT SNOW  14  10  85 E7        30.19F WCI   4
LAKEVILLE      LGT SNOW  10  10 100 E7        30.17F WCI   0
EDEN PRAIRIE   LGT SNOW  13   9  84 E8        30.17F VSB 1   WCI   2
SOUTH ST PAUL  LGT SNOW  14  10  85 CALM      30.20S
LAKE ELMO      LGT SNOW  14  12  92 E5        30.20F WCI   6
$$
MNZ001>005-007-008-013>017-022>024-027-028-110500-
   Northwest Minnesota

CITY           SKY/WX    TMP DP  RH WIND       PRES   REMARKS
BEMIDJI        CLOUDY    -1  -6  82 E5        30.17F WCI -12
HALLOCK        CLOUDY    -9 -13  84 E9        30.24F WCI -27
ROSEAU         CLOUDY   -15 -18  84 CALM      30.24F
WARROAD        CLOUDY   -13 -18  77 CALM      30.24S
THIEF RVR FALL CLOUDY    -9 -13  83 NE10      30.20F WCI -27
CROOKSTON      CLOUDY    -6  -9  84 E9        30.22F WCI -22
FOSSTON        CLOUDY    -9 -15  77 E3        30.17F
DETROIT LAKES  FLURRIES   5   1  85 SE8       30.13F WCI  -8
MOORHEAD       MIX PCPN   3  -2  78 E7        30.16F WCI  -9
PARK RAPIDS    CLOUDY     4  -3  73 E7        30.15S WCI  -8
$$
MNZ006-009>011-018-025>026-110500-
   North Central Minnesota

CITY           SKY/WX    TMP DP  RH WIND       PRES   REMARKS
BAUDETTE       CLOUDY    -7 -12  79 CALM      30.23S
INTL FALLS     CLOUDY   -15 -21  74 CALM      30.24S
WASKISH        CLOUDY    -8 -11  84 CALM      30.22F
BIG FORK       CLOUDY   -15 -18  84 CALM      30.21S
LONGVILLE      CLOUDY     1  -2  85 CALM      30.19S
GRAND RAPIDS   CLOUDY    -2  -6  83 CALM      30.22S
CRANE LAKE     CLOUDY   -13 -17  84 CALM      30.27F
ORR            CLOUDY   -15 -20  76 CALM      30.19F
COOK           CLOUDY   -13 -18  77 CALM      30.22
$$
MNZ012-019>021-037-110500-
   Northeast Minnesota

CITY           SKY/WX    TMP DP  RH WIND       PRES   REMARKS
DULUTH         CLOUDY     3  -3  76 N6        30.19F WCI  -8
ELY            CLOUDY   -11 -17  77 CALM      30.22S
HIBBING        CLOUDY   -11 -15  82 CALM      30.21F
EVELETH        CLOUDY    -6 -12  77 NE3       30.22S
DULUTH HARBOR  CLOUDY    12   5  73 CALM      30.27F
TWO HARBORS    CLOUDY     3  -2  78 CALM      30.21S
SILVER BAY     CLOUDY     1  -4  78 CALM      30.22S
GRAND MARAIS     N/A      7  -2  66 N9        30.29F WCI  -7
G MARAIS ARPRT MOCLDY    -6 -11  77 N5        30.18S WCI -17
$$
MNZ029>031-032-039>041-046>048-054>057-064-110500-
   West Central Minnesota

CITY           SKY/WX    TMP DP  RH WIND       PRES   REMARKS
FERGUS FALLS   FLURRIES   7   0  72 E8        30.17F WCI  -6
WHEATON        LGT SNOW  10   9  92 E12       30.12F WCI  -4
MORRIS         LGT SNOW  10   7  85 E17       30.09F WCI  -7
ALEXANDRIA     LGT SNOW   8   3  80 E12       30.11F WCI  -7
ELBOW LAKE     LGT SNOW   7   3  84 SE14      30.11F WCI -10
WADENA         FLURRIES   5   0  78 E9        30.13F WCI  -9
GLENWOOD       LGT SNOW   9   7  92 E12       30.12F WCI  -6
APPLETON       LGT SNOW  12   9  85 E13       30.10F WCI  -3
BENSON         LGT SNOW  10   7  85 SE9       30.10F WCI  -2
ORTONVILLE     LGT SNOW  10   7  85 E14       30.07F WCI  -5
MADISON        LGT SNOW  12  10  92 E12       30.09F WCI  -2
WILLMAR        LGT SNOW  12   9  85 E9        30.13F WCI   0
$$
MNZ033>034-036-042>043-049>051-058-059-110500-
   Central Minnesota

CITY           SKY/WX    TMP DP  RH WIND       PRES   REMARKS
ST CLOUD       LGT SNOW  11   7  84 E6        30.18F FOG     WCI   1
PAYNESVILLE    LGT SNOW  11   9  92 E7        30.15F WCI   0
AITKIN         CLOUDY     9   0  66 NE5       30.18S WCI   0
PINE RIVER     CLOUDY     5   0  78 E5        30.20F WCI  -4
BRAINERD       FLURRIES   7   2  80 E3        30.19R
LONG PRAIRIE   LGT SNOW   9   5  85 NE8       30.14F WCI  -4
LITTLE FALLS   LGT SNOW  10   5  79 E5        30.18F WCI   2
LITCHFIELD     LGT SNOW  12   9  85 E8        30.14F WCI   1
BUFFALO        LGT SNOW  12   9  86 E9        30.18F WCI   0
MAPLE LAKE     LGT SNOW  13  10  90 E7        30.17F WCI   3
HUTCHINSON     LGT SNOW  12  10  89 NE9       30.14F WCI   0
$$
MNZ037-044-045-052-053-110500-
   East Central Minnesota

CITY           SKY/WX    TMP DP  RH WIND       PRES   REMARKS
PRINCETON      LGT SNOW  12   9  85 NE5       30.18F WCI   4
MORA           LGT SNOW  12   9  85 E5        30.22F WCI   4
CAMBRIDGE      LGT SNOW  14   7  73 CALM      30.19F
RUSH CITY      CLOUDY    10   7  85 NE3       30.21F
MOOSE LAKE     CLOUDY     9   1  72 CALM      30.21R
HINCKLEY       CLOUDY    12   9  85 E5        30.22S WCI   4
CLOQUET        CLOUDY     3  -2  78 CALM      30.20S
MCGREGOR       CLOUDY     7   1  78 NE5       30.21R WCI  -2
$$
MNZ071>073-080-081-089-090-097-098-110500-
   Southwest Minnesota

CITY           SKY/WX    TMP DP  RH WIND       PRES   REMARKS
MONTEVIDEO     LGT SNOW  10   9  92 SE13      30.11F WCI  -5
GRANITE FALLS  LGT SNOW  13  10  87 E9        30.10F VSB 1   WCI   1
CANBY          LGT SNOW  11   9  90 CALM      30.07F VSB 1
MARSHALL       LGT SNOW  12   9  87 E10       30.05F FOG     WCI  -1
REDWOOD FALLS  LGT SNOW  13   9  84 E10       30.10F VSB 3/4 WCI   0
OLIVIA         LGT SNOW  12  10  92 E13       30.10F VSB 1   WCI  -3
PIPESTONE      LGT SNOW  16  12  86 E14       29.96F WCI   1
WINDOM         LGT SNOW  16  12  86 MISG      30.03F
WORTHINGTON    LGT SNOW  17  14  88 E14       29.99F FOG     WCI   3
JACKSON        LGT SNOW  18  14  86 E14       30.03F WCI   4
TRACY          LGT SNOW  13  11  91 E9        30.04F WCI   1
SLAYTON        LGT SNOW  13  11  92 E13       30.02F WCI  -2
$$
MNZ065>067-074>077-082>085-091>093-110500-
   South Central Minnesota

CITY           SKY/WX    TMP DP  RH WIND       PRES   REMARKS
MANKATO        LGT SNOW  14  10  85 E12       30.11F FOG     WCI   0
NEW ULM        LGT SNOW  12  10  92 E8        30.11F WCI   1
ST JAMES       LGT SNOW  16  12  86 E8        30.09F WCI   5
FAIRMONT       LGT SNOW  18  16  92 E12       30.07F FOG     WCI   5
GLENCOE        LGT SNOW  13  11  92 E8        30.15F WCI   2
FARIBAULT      LGT SNOW  12  10  92 E6        30.15F WCI   3
OWATONNA       LGT SNOW  14  10  85 E10       30.12F WCI   1
WASECA         LGT SNOW  14  12  92 E12       30.13S WCI   0
ALBERT LEA     LGT SNOW  19  18  93 E7        30.11F WCI  10
$$
MNZ078>079-086>088-094>096-110500-
   Southeast Minnesota

CITY           SKY/WX    TMP DP  RH WIND       PRES   REMARKS
ROCHESTER      LGT SNOW  13  11  92 E10       30.14S FOG     WCI   0
RED WING       LGT SNOW  14  10  85 E7        30.19F WCI   4
STANTON        LGT SNOW  15  11  84 E7        30.16F WCI   5
DODGE CENTER   LGT SNOW  12  10  92 E12       30.12F WCI  -2
WINONA         LGT SNOW  18  14  86 SE3       30.24R
AUSTIN         LGT SNOW  16  12  86 E9        30.13R WCI   4
PRESTON        LGT SNOW  14  11  89 E6        30.16R WCI   5
$$
ABBREVIATIONS USED IN REMARKS
   TC - TEMPERATURES IN CELSIUS
  WCI - WIND CHILL INDEX
   HX - HEAT INDEX
  VSB - VISIBILITY
$$



USA.gov is the U.S. government's official web portal to all federal, state and local government web resources and services.